CW8756 Weather Reports


time (UTC)temp
C
wind
direction
speed
KPH
gust
KPH
rain 1hr
cm
rain 24hr
cm
rain mn
cm
humidity
%
barometer
mb
20260505041531 25 123 0.0 0.0 0.00 0.00 0.00 100 1014.7
20260505040025 25 122 0.0 0.0 0.00 0.00 0.00 100 1014.7
20260505034522 26 88 0.0 0.0 0.00 0.00 0.00 100 1014.8
20260505033022 26 88 0.0 0.0 0.00 0.00 0.00 100 1014.9
20260505031520 26 88 0.0 0.0 0.00 0.00 0.00 100 1014.9
20260505030018 26 88 0.0 0.0 0.00 0.00 0.00 100 1015.1
20260505024534 26 88 0.0 0.0 0.00 0.00 0.00 100 1015.0
20260505023017 26 88 0.0 0.0 0.00 0.00 0.00 100 1014.8
20260505021518 26 88 0.0 0.0 0.00 0.00 0.00 100 1014.8
20260505020015 26 88 0.0 0.0 0.00 0.00 0.00 100 1014.7
20260505014513 26 88 0.0 0.0 0.00 0.00 0.00 100 1014.6
20260505013018 26 88 0.0 0.0 0.00 0.00 0.00 100 1014.5
20260505011508 26 88 0.0 0.0 0.00 0.00 0.00 100 1014.4
20260505010008 26 88 0.0 0.0 0.00 0.00 0.00 100 1014.3
20260505004505 26 88 0.0 0.0 0.00 0.00 0.00 100 1014.3
20260505003006 26 88 0.0 0.0 0.00 0.00 0.00 100 1014.2
20260505001505 26 88 0.0 0.0 0.00 0.00 0.00 100 1014.0
20260505000004 26 88 0.0 0.0 0.00 0.00 0.00 100 1014.0
20260504234503 26 88 0.0 0.0 0.00 0.00 0.00 100 1013.9
20260504233040 26 89 0.0 0.0 0.00 0.00 0.00 100 1013.7
20260504231555 27 89 0.0 0.0 0.00 0.00 0.00 100 1013.6
20260504230033 27 43 0.0 0.0 0.00 0.00 0.00 100 1013.6
20260504224537 27 20 0.0 0.0 0.00 0.00 0.00 100 1013.5
20260504223031 27 80 0.0 0.0 0.00 0.00 0.00 100 1013.4
20260504221531 27 78 0.0 0.0 0.00 0.00 0.00 100 1013.3
20260504220034 27 344 0.0 0.0 0.00 0.00 0.00 100 1013.1
20260504214530 27 24 0.0 0.0 0.00 0.00 0.00 100 1012.8
20260504213028 27 46 0.0 0.0 0.00 0.00 0.00 100 1012.7
20260504211529 27 16 0.0 0.0 0.00 0.00 0.00 100 1012.7
20260504210034 27 66 0.0 0.0 0.00 0.00 0.00 100 1012.7
20260504204525 27 48 0.0 0.0 0.00 0.00 0.00 100 1012.6
20260504203031 28 32 0.0 0.0 0.00 0.00 0.00 100 1012.5
20260504201523 27 83 0.0 0.0 0.00 0.00 0.00 100 1012.6
20260504200025 28 306 0.0 0.0 0.00 0.00 0.00 100 1012.4
20260504194536 28 11 0.0 0.0 0.00 0.00 0.00 100 1012.6
20260504193021 27 60 0.0 0.0 0.00 0.00 0.00 100 1012.8
20260504191519 28 327 0.0 0.0 0.00 0.00 0.00 100 1012.7
20260504190020 28 12 0.0 0.0 0.00 0.00 0.00 100 1012.8
20260504184517 28 360 0.0 0.0 0.00 0.00 0.00 100 1012.9
20260504183017 28 46 0.0 0.0 0.00 0.00 0.00 100 1012.9
20260504181515 28 344 0.0 0.0 0.00 0.00 0.00 100 1013.2
20260504180018 28 264 0.0 0.0 0.00 0.00 0.00 100 1013.1
20260504174613 28 11 0.0 0.0 0.00 0.00 0.00 100 1013.5
20260504173015 28 50 0.0 0.0 0.00 0.00 0.00 100 1013.8
20260504171510 28 32 0.0 0.0 0.00 0.00 0.00 100 1013.9
20260504140105 30 183 0.0 0.0 0.00 0.00 0.00 96 1014.4
20260504081542 -17 0.0 0.0 0.00 0.00 0.00 1013.2
20260504050113 24 97 0.0 0.0 0.00 0.00 0.00 100 1014.2